Date,TemperatureHighF,TemperatureAvgF,TemperatureLowF,DewpointHighF,DewpointAvgF,DewpointLowF,HumidityHigh,HumidityAvg,HumidityLow,PressureMaxIn,PressureMinIn,WindSpeedMaxMPH,WindSpeedAvgMPH,GustSpeedMaxMPH,PrecipitationSumIn
2013-12-1,65.3,51.5,40.9,51.6,44.9,38.5,93,79,57,30.46,30.27,3,0,3,0.00
2013-12-2,65.5,53.2,41.3,52.9,47.4,38.9,95,82,61,30.35,29.99,14,2,15,0.00
2013-12-3,55.5,50.5,42.4,54.1,37.6,20.6,96,64,26,30.05,29.89,21,5,22,0.00
2013-12-4,48.6,40.6,34.1,27.4,22.2,17.4,67,49,30,30.19,30.05,15,4,20,0.00
2013-12-5,49.2,38.2,31.6,24.2,21.4,19.4,67,52,33,30.31,30.17,9,2,11,0.00
2013-12-6,47.7,39.9,31.2,38.1,30.2,21.4,92,69,55,30.34,30.07,21,3,27,0.00
2013-12-7,47.1,39.8,31.9,38.7,34.1,28.2,95,81,57,30.41,30.07,17,2,27,0.01
2013-12-8,43.1,35.4,30.1,30.0,27.2,24.5,92,73,50,30.50,30.35,10,2,11,0.00
2013-12-9,49.9,36.6,27.7,35.0,28.1,22.2,83,72,52,30.61,30.48,7,1,8,0.00
2013-12-10,51.1,38.2,27.9,33.5,29.6,24.5,90,73,44,30.61,30.31,6,0,7,0.00
2013-12-11,55.2,40.4,29.9,37.9,32.1,26.2,87,74,48,30.45,30.33,0,0,1,0.01
2013-12-12,56.6,41.7,30.6,42.1,34.5,27.3,89,76,52,30.45,30.30,2,0,3,0.00
2013-12-13,57.8,43.5,33.1,39.7,35.1,29.4,92,74,47,30.50,30.33,5,0,5,0.00
2013-12-14,58.4,43.9,33.5,42.2,35.9,29.9,88,75,53,30.60,30.44,2,0,4,0.00
2013-12-15,58.4,43.2,32.5,43.7,35.9,29.0,90,77,52,30.58,30.37,0,0,1,0.00
2013-12-16,60.8,45.1,34.5,46.0,38.1,31.5,90,77,56,30.46,30.25,0,0,1,0.00
2013-12-17,60.8,47.0,37.7,46.4,40.6,34.7,92,80,57,30.43,30.19,0,0,0,0.00
2013-12-18,60.1,50.1,41.7,47.3,43.7,38.8,92,80,59,30.25,29.85,7,1,8,0.00
2013-12-19,59.6,49.5,41.0,44.4,34.4,22.8,97,61,33,30.05,29.83,30,6,30,0.00
2013-12-20,59.6,47.4,36.7,36.0,25.7,20.1,74,44,27,30.15,30.01,15,3,19,0.02
2013-12-21,57.6,45.7,36.5,42.1,35.9,32.5,87,70,45,30.27,30.08,7,0,7,0.05
2013-12-22,60.9,46.4,35.5,44.1,37.7,31.6,87,73,51,30.51,30.27,3,0,3,0.00
2013-12-23,61.7,47.6,36.1,44.4,39.0,32.7,89,73,51,30.68,30.51,1,0,2,0.00
2013-12-24,61.6,47.0,37.6,47.5,39.7,34.3,89,77,53,30.62,30.42,1,0,1,0.00
2013-12-25,61.9,46.5,35.4,47.2,39.8,32.8,93,79,56,30.63,30.43,6,0,7,0.00
2013-12-26,62.3,45.3,34.1,45.3,37.7,31.1,91,76,47,30.61,30.41,0,0,1,0.00
2013-12-27,57.1,44.7,34.8,43.3,37.3,31.5,91,76,57,30.59,30.28,5,0,7,0.00
2013-12-28,66.0,47.2,32.9,39.3,34.6,30.0,90,65,33,30.34,30.12,10,1,13,0.00
2013-12-29,61.7,46.0,34.3,45.5,37.0,29.5,84,72,52,30.40,30.25,6,0,7,0.10
2013-12-30,60.3,46.0,34.4,43.1,37.2,30.9,89,73,49,30.45,30.33,0,0,1,0.06
2013-12-31,62.1,46.3,38.8,42.5,37.0,32.2,88,72,42,30.47,30.27,7,0,8,0.00